User: anonymous   Login
Location: Geremba
(10.4250°N, 67.2394°W)
Time: 16:53:54
(UTC+00:00)
Language:

Cosmos 2366 rocket - Orbit

View from above orbital plane
View from above orbital plane
View from above satellite
View from above satellite

Ground track
Ground track

The orbit data is extracted from the following two-line orbital elements,

1 25893U 99045B   24202.23211830  .00000171  00000-0  15773-3 0  9999
2 25893  82.9246 256.3662 0029694  54.2385   7.4038 13.76695715250983
Epoch (UTC): 20 July 2024 05:34:15
Eccentricity: 0.0029694
inclination: 82.9246°
perigee height: 954 km
apogee height: 997 km
right ascension of ascending node: 256.3662°
argument of perigee: 54.2385°
revolutions per day: 13.76695715
mean anomaly at epoch: 7.4038°
orbit number at epoch: 25098

The dashed part of the orbit path shows where the satellite is in the earth's shadow,  

DLR